Regional Weather Roundup
Issued by NWS

Home | Current Version | Previous Version | Text Only | Print | Product List | Glossary On
Versions: 1 2 3 4 5 6 7 8 9 10 11 12 13 14 15 16 17 18 19 20 21 22 23 24 25 26 27 28 29 30 31 32 33 34 35 36 37 38 39 40 41 42 43 44 45 46 47 48 49 50
000
ASUS43 KMKX 200911
RWRWI

WISCONSIN REGIONAL WEATHER ROUNDUP
NATIONAL WEATHER SERVICE MILWAUKEE/SULLIVAN WI
400 AM CDT SUN AUG 20 2017

NOTE: "FAIR" INDICATES FEW OR NO CLOUDS BELOW 12,000 FEET WITH NO
SIGNIFICANT WEATHER AND/OR OBSTRUCTIONS TO VISIBILITY.

WIZ001-002-006>008-014>016-023>028-201000-
NORTHWEST WISCONSIN

CITY           SKY/WX    TMP DP  RH WIND       PRES   REMARKS
SUPERIOR ARPT  FOG       55  55 100 CALM      29.85S VSB 1/4
ASHLAND        FOG       56  55  97 CALM      29.88F VSB 1
HAYWARD        CLEAR     54  52  93 CALM      29.91S
SIREN          CLEAR     62  60  94 S7        29.89R
CUMBERLAND     CLEAR     55  55 100 CALM      29.92R FOG
RICE LAKE      CLEAR     59  58  97 CALM      29.94R FOG
CHETEK         CLEAR     59  59 100 CALM      29.93R
LADYSMITH      CLEAR     60  58  96 SE3       29.96R
EAU CLAIRE     CLOUDY    59  58  96 CALM      29.92R
MENOMONIE      CLOUDY    60  59  97 E5        29.92R
NEW RICHMOND   CLOUDY    61  61  98 S5        29.90S
OSCEOLA        PTCLDY    62  62 100 CALM      29.92R
$$

WIZ003>005-009-010-017-018-201000-
NORTH CENTRAL WISCONSIN

CITY           SKY/WX    TMP DP  RH WIND       PRES   REMARKS
MANITOWISH WTR FOG       51  51 100 CALM      29.94S VSB 1/2
ARBOR VITAE      N/A     57  55  95 CALM      29.95S FOG
WOODRUFF         N/A     57  55  95 CALM      29.95S FOG
RHINELANDER    FOG       53  53 100 CALM      29.97S VSB 1/2
EAGLE RIVER    FOG       53  53 100 CALM      29.96S VSB 1/4
LAND O LAKES     N/A     51  51 100 CALM      29.97F FOG
PHILLIPS       CLEAR     56  56 100 CALM      29.94S
TOMAHAWK         N/A     50  49  97 CALM      29.97R FOG
MEDFORD        CLEAR     55  55  97 S5        29.96R
MERRILL        NOT AVBL
$$

WIZ029-030-035-036-043>047-201000-
CENTRAL WISCONSIN

CITY           SKY/WX    TMP DP  RH WIND       PRES   REMARKS
WAUSAU         CLEAR     56  56 100 E5        29.95S
MOSINEE        CLEAR     55  55 100 CALM      29.98R
MARSHFIELD     CLEAR     58  55  90 S6        29.97R
STEVENS POINT  CLEAR     53  53 100 CALM      29.98R
WAUPACA        CLEAR     58  57  97 CALM      29.97S
WAUTOMA        CLEAR     55  54  96 CALM      29.99R
WISC RAPIDS    CLEAR     58  56  93 SW3       29.98R
CAMP DOUGLAS   PTCLDY    58  58 100 CALM      29.97R
$$

WIZ011>013-019>022-031-037>040-048>050-201000-
NORTHEAST WISCONSIN

CITY           SKY/WX    TMP DP  RH WIND       PRES   REMARKS
ANTIGO         CLEAR     52  52 100 CALM      29.98R
SHAWANO        CLEAR     60  58  95 CALM      29.96S
OCONTO         CLEAR     55  55  97 CALM      29.95R
STURGEON BAY   NOT AVBL
GREEN BAY      CLEAR     58  58 100 W3        29.96F FOG
MANITOWOC      CLEAR     64  59  83 W3        29.97F
APPLETON       CLEAR     61  57  88 SW6       29.96S
CLINTONVILLE   PTCLDY    55  55 100 CALM      29.97R FOG
OSHKOSH        CLEAR     61  59  93 CALM      29.97S
$$

WIZ032>034-041-042-053>061-201000-
SOUTHWEST WISCONSIN

CITY           SKY/WX    TMP DP  RH WIND       PRES   REMARKS
LA CROSSE      CLOUDY    65  61  87 SE5       29.95R
SPARTA         CLOUDY    51  51  99 CALM      29.96R
VIROQUA        CLOUDY    63  61  96 CALM      29.98R
BOSCOBEL       FOG       61  60  97 CALM      29.97R VSB 1/4
PRAIRIE DU CHI CLOUDY    60  58  93 CALM      29.97R
PLATTEVILLE    CLOUDY    63  62  98 SE6       29.99R
$$

WIZ056-057-062-063-064-067-068-201000-
SOUTH CENTRAL WISCONSIN

CITY           SKY/WX    TMP DP  RH WIND       PRES   REMARKS
REEDSBURG      CLEAR     57  57 100 CALM      29.98R
BARABOO/DELLS  CLEAR     60  57  92 S3        29.98R
LONE ROCK      CLOUDY    57  57 100 CALM      29.98R
MINERAL POINT  CLEAR     63  63 100 SE5       30.00R
MADISON        CLEAR     60  59  96 CALM      29.99R
MIDDLETON      CLEAR     58  58 100 CALM      30.00R
WATERTOWN      CLEAR     60  60 100 CALM      29.99R
MONROE         CLEAR     63  57  82 S7        29.99R
JANESVILLE     CLEAR     59  59 100 CALM      29.99R
$$

WIZ051-052-058>065-066-070>072-201000-
SOUTHEAST WISCONSIN

CITY           SKY/WX    TMP DP  RH WIND       PRES   REMARKS
MILWAUKEE      CLEAR     64  58  80 SW3       29.99F
WAUKESHA       CLEAR     59  57  94 CALM      30.00S
MILWAUKEE/TIMM CLEAR     61  55  82 CALM      30.00F
RACINE         CLEAR     62  58  86 MISG      30.01S
KENOSHA        CLEAR     58  56  93 CALM      30.00F
FOND DU LAC    LGT RAIN  61  57  87 S5        29.98S
SHEBOYGAN      CLEAR     60  60 100 SW3       29.98F
WEST BEND      CLEAR     55  55 100 CALM      30.00S
JUNEAU         CLEAR     59  58  97 CALM      30.00R
$$

LSZ147-162-201000-
LAKE SUPERIOR

STATION/POSITION TIME  TEMP    WIND        PRES    WAVE
                       AIR SEA DIR/SP/G            HT/PER
                 (UTC) (F)     (DEG/KT/KT) (MB)    (FT/S)
W MID LAKE BUOY  0850   62 59  220/  8/ 10 1011.0F   1
DEVILS ISLAND    0900   67     200/  7/  8 1010.9F
SAXON HARBOR     0840   64     200/  7/  8 1011.5F
$$

LMZ867-665-643>646-201000-
LAKE MICHIGAN

STATION/POSITION TIME  TEMP    WIND        PRES    WAVE
                       AIR SEA DIR/SP/G            HT/PER
                 (UTC) (F)     (DEG/KT/KT) (MB)    (FT/S)
S GREEN BAY BUOY 0900   70 71  220/  8/ 10 1014.1
N MID LAKE BUOY  0850   69 67  240/ 10/ 10 1014.2R   2/ 4
NORTHPORT PIER   0840   67     250/  2/  5 1013.9S
KEWAUNEE LAKESHO 0848   65     300/  4/  6 1013.8F
SHEBOYGAN LAKESH 0900   66     200/  6/  7 1014.7F
PORT WASHINGTON  0830   65      CALM  /  2 1015.9F
ATWATER BUOY     0839   71 70  170/  6/  8 1015.4F
MILWAUKEE LAKESH 0850   70     230/  7/  7   N/A
S MID LAKE BUOY  0850   72 71  170/  8/  8 1015.7F   1
KENOSHA   LAKESH 0900   68     200/  4/  5 1015.6
$$

TC  - TEMPERATURE IN CELSIUS
VSB - VISIBILITY IN STATUTE MILES
WCI - WIND CHILL INDEX
HX  - HEAT INDEX




USA.gov is the U.S. government's official web portal to all federal, state and local government web resources and services.